Year,Month,Day,Hour,Minute,Value (Times are PST for temperature in C)
2012,03,11,00,00,4.60
2012,03,11,00,01,4.60
2012,03,11,00,02,4.70
2012,03,11,00,03,4.70
2012,03,11,00,04,4.70
2012,03,11,00,05,4.70
2012,03,11,00,06,4.70
2012,03,11,00,07,4.70
2012,03,11,00,08,4.60
2012,03,11,00,09,4.60
2012,03,11,00,10,4.60
2012,03,11,00,11,4.60
2012,03,11,00,12,4.60
2012,03,11,00,13,4.60
2012,03,11,00,14,4.60
2012,03,11,00,15,4.60
2012,03,11,00,16,4.50
2012,03,11,00,17,4.50
2012,03,11,00,18,4.50
2012,03,11,00,19,4.50
2012,03,11,00,20,4.40
2012,03,11,00,21,4.40
2012,03,11,00,22,4.40
2012,03,11,00,23,4.40
2012,03,11,00,24,4.30
2012,03,11,00,25,4.30
2012,03,11,00,26,4.30
2012,03,11,00,27,4.20
2012,03,11,00,28,4.20
2012,03,11,00,29,4.20
2012,03,11,00,30,4.10
2012,03,11,00,31,4.10
2012,03,11,00,32,4.10
2012,03,11,00,33,4.10
2012,03,11,00,34,4.00
2012,03,11,00,35,4.00
2012,03,11,00,36,4.00
2012,03,11,00,37,3.90
2012,03,11,00,38,3.90
2012,03,11,00,39,3.90
2012,03,11,00,40,3.90
2012,03,11,00,41,3.90
2012,03,11,00,42,3.80
2012,03,11,00,43,3.80
2012,03,11,00,44,3.80
2012,03,11,00,45,3.70
2012,03,11,00,46,3.70
2012,03,11,00,47,3.60
2012,03,11,00,48,3.60
2012,03,11,00,49,3.50
2012,03,11,00,50,3.50
2012,03,11,00,51,3.50
2012,03,11,00,52,3.50
2012,03,11,00,53,3.50
2012,03,11,00,54,3.50
2012,03,11,00,55,3.50
2012,03,11,00,56,3.50
2012,03,11,00,57,3.60
2012,03,11,00,58,3.60
2012,03,11,00,59,3.60
2012,03,11,01,00,3.60
2012,03,11,01,01,3.60
2012,03,11,01,02,3.70
2012,03,11,01,03,3.70
2012,03,11,01,04,3.70
2012,03,11,01,05,3.60
2012,03,11,01,06,3.60
2012,03,11,01,07,3.50
2012,03,11,01,08,3.50
2012,03,11,01,09,3.40
2012,03,11,01,10,3.40
2012,03,11,01,11,3.40
2012,03,11,01,12,3.40
2012,03,11,01,13,3.30
2012,03,11,01,14,3.30
2012,03,11,01,15,3.30
2012,03,11,01,16,3.30
2012,03,11,01,17,3.20
2012,03,11,01,18,3.20
2012,03,11,01,19,3.20
2012,03,11,01,20,3.20
2012,03,11,01,21,3.20
2012,03,11,01,22,3.20
2012,03,11,01,23,3.10
2012,03,11,01,24,3.10
2012,03,11,01,25,3.10
2012,03,11,01,26,3.00
2012,03,11,01,27,2.90
2012,03,11,01,28,2.90
2012,03,11,01,29,2.90
2012,03,11,01,30,2.80
2012,03,11,01,31,2.80
2012,03,11,01,32,2.80
2012,03,11,01,33,2.80
2012,03,11,01,34,2.70
2012,03,11,01,35,2.70
2012,03,11,01,36,2.70
2012,03,11,01,37,2.70
2012,03,11,01,38,2.70
2012,03,11,01,39,2.60
2012,03,11,01,40,2.50
2012,03,11,01,41,2.40
2012,03,11,01,42,2.40
2012,03,11,01,43,2.40
2012,03,11,01,44,2.40
2012,03,11,01,45,2.40
2012,03,11,01,46,2.40
2012,03,11,01,47,2.50
2012,03,11,01,48,2.40
2012,03,11,01,49,2.40
2012,03,11,01,50,2.40
2012,03,11,01,51,2.30
2012,03,11,01,52,2.30
2012,03,11,01,53,2.30
2012,03,11,01,54,2.30
2012,03,11,01,55,2.30
2012,03,11,01,56,2.30
2012,03,11,01,57,2.30
2012,03,11,01,58,2.30
2012,03,11,01,59,2.20
2012,03,11,03,00,2.20
2012,03,11,03,01,2.20
2012,03,11,03,02,2.20
2012,03,11,03,03,2.20
2012,03,11,03,06,2.30
2012,03,11,03,07,2.30
2012,03,11,03,08,2.30
2012,03,11,03,09,2.30
2012,03,11,03,10,2.30
2012,03,11,03,11,2.30
2012,03,11,03,12,2.30
2012,03,11,03,13,2.30
2012,03,11,03,14,2.30
2012,03,11,03,15,2.30
2012,03,11,03,16,2.30
2012,03,11,03,17,2.30
2012,03,11,03,18,2.30
2012,03,11,03,19,2.30
2012,03,11,03,20,2.30
2012,03,11,03,21,2.40
2012,03,11,03,22,2.50
2012,03,11,03,23,2.50
2012,03,11,03,24,2.60
2012,03,11,03,25,2.70
2012,03,11,03,26,2.80
2012,03,11,03,27,2.90
2012,03,11,03,28,2.90
2012,03,11,03,29,2.90
2012,03,11,03,30,3.00
2012,03,11,03,31,3.10
2012,03,11,03,32,3.10
2012,03,11,03,33,3.20
2012,03,11,03,34,3.20
2012,03,11,03,35,3.30
2012,03,11,03,36,3.30
2012,03,11,03,37,3.40
2012,03,11,03,38,3.40
2012,03,11,03,39,3.50
2012,03,11,03,40,3.60
2012,03,11,03,41,3.70
2012,03,11,03,42,3.70
2012,03,11,03,43,3.70
2012,03,11,03,44,3.70
2012,03,11,03,45,3.70
2012,03,11,03,46,3.80
2012,03,11,03,47,3.80
2012,03,11,03,48,3.80
2012,03,11,03,49,3.80
2012,03,11,03,50,3.80
2012,03,11,03,51,3.80
2012,03,11,03,52,3.70
2012,03,11,03,53,3.70
2012,03,11,03,54,3.60
2012,03,11,03,55,3.60
2012,03,11,03,56,3.50
2012,03,11,03,57,3.40
2012,03,11,03,58,3.40
2012,03,11,03,59,3.30
2012,03,11,04,00,3.30
2012,03,11,04,01,3.20
2012,03,11,04,02,3.20
2012,03,11,04,03,3.10
2012,03,11,04,04,3.10
2012,03,11,04,05,3.00
2012,03,11,04,06,3.00
2012,03,11,04,07,3.00
2012,03,11,04,08,2.90
2012,03,11,04,09,2.90
2012,03,11,04,10,2.90
2012,03,11,04,11,2.90
2012,03,11,04,12,2.90
2012,03,11,04,13,2.90
2012,03,11,04,14,2.90
2012,03,11,04,15,2.90
2012,03,11,04,16,2.90
2012,03,11,04,17,2.90
2012,03,11,04,18,2.90
2012,03,11,04,19,2.90
2012,03,11,04,20,2.90
2012,03,11,04,21,2.90
2012,03,11,04,22,2.90
2012,03,11,04,23,2.90
2012,03,11,04,24,2.90
2012,03,11,04,25,2.90
2012,03,11,04,26,2.90
2012,03,11,04,27,2.90
2012,03,11,04,28,2.90
2012,03,11,04,29,2.90
2012,03,11,04,30,2.90
2012,03,11,04,31,2.90
2012,03,11,04,32,2.90
2012,03,11,04,33,2.80
2012,03,11,04,34,2.80
2012,03,11,04,35,2.80
2012,03,11,04,36,2.80
2012,03,11,04,37,2.80
2012,03,11,04,38,2.80
2012,03,11,04,39,2.80
2012,03,11,04,40,2.70
2012,03,11,04,41,2.70
2012,03,11,04,42,2.70
2012,03,11,04,43,2.70
2012,03,11,04,44,2.70
2012,03,11,04,45,2.70
2012,03,11,04,46,2.70
2012,03,11,04,47,2.60
2012,03,11,04,48,2.60
2012,03,11,04,49,2.60
2012,03,11,04,50,2.60
2012,03,11,04,51,2.60
2012,03,11,04,52,2.50
2012,03,11,04,53,2.50
2012,03,11,04,54,2.50
2012,03,11,04,55,2.40
2012,03,11,04,56,2.40
2012,03,11,04,57,2.40
2012,03,11,04,58,2.40
2012,03,11,04,59,2.40
2012,03,11,05,00,2.30
2012,03,11,05,01,2.30
2012,03,11,05,02,2.30
2012,03,11,05,03,2.30
2012,03,11,05,04,2.30
2012,03,11,05,05,2.30
2012,03,11,05,06,2.40
2012,03,11,05,07,2.50
2012,03,11,05,08,2.60
2012,03,11,05,09,2.70
2012,03,11,05,10,2.80
2012,03,11,05,11,2.90
2012,03,11,05,12,2.90
2012,03,11,05,13,3.00
2012,03,11,05,14,3.00
2012,03,11,05,15,3.00
2012,03,11,05,16,3.10
2012,03,11,05,17,3.00
2012,03,11,05,18,3.00
2012,03,11,05,19,3.10
2012,03,11,05,20,3.10
2012,03,11,05,21,3.10
2012,03,11,05,22,3.10
2012,03,11,05,23,3.20
2012,03,11,05,24,3.20
2012,03,11,05,25,3.20
2012,03,11,05,26,3.30
2012,03,11,05,27,3.30
2012,03,11,05,28,3.30
2012,03,11,05,29,3.40
2012,03,11,05,30,3.40
2012,03,11,05,31,3.50
2012,03,11,05,32,3.50
2012,03,11,05,33,3.60
2012,03,11,05,34,3.70
2012,03,11,05,35,3.70
2012,03,11,05,36,3.70
2012,03,11,05,37,3.80
2012,03,11,05,38,3.80
2012,03,11,05,39,3.80
2012,03,11,05,40,3.90
2012,03,11,05,41,4.10
2012,03,11,05,42,4.10
2012,03,11,05,43,4.30
2012,03,11,05,44,4.30
2012,03,11,05,45,4.40
2012,03,11,05,46,4.40
2012,03,11,05,47,4.50
2012,03,11,05,48,4.60
2012,03,11,05,49,4.70
2012,03,11,05,50,4.70
2012,03,11,05,51,4.80
2012,03,11,05,52,4.80
2012,03,11,05,53,4.80
2012,03,11,05,54,4.80
2012,03,11,05,55,4.80
2012,03,11,05,56,4.90
2012,03,11,05,57,5.00
2012,03,11,05,58,5.00
2012,03,11,05,59,5.10
2012,03,11,06,00,5.10
2012,03,11,06,01,5.10
2012,03,11,06,02,5.20
2012,03,11,06,03,5.30
2012,03,11,06,04,5.40
2012,03,11,06,05,5.40
2012,03,11,06,06,5.40
2012,03,11,06,07,5.50
2012,03,11,06,08,5.40
2012,03,11,06,09,5.40
2012,03,11,06,10,5.30
2012,03,11,06,11,5.30
2012,03,11,06,12,5.20
2012,03,11,06,13,5.20
2012,03,11,06,14,5.10
2012,03,11,06,15,5.10
2012,03,11,06,16,5.00
2012,03,11,06,17,5.00
2012,03,11,06,18,4.90
2012,03,11,06,19,4.80
2012,03,11,06,20,4.70
2012,03,11,06,21,4.60
2012,03,11,06,22,4.50
2012,03,11,06,23,4.40
2012,03,11,06,24,4.30
2012,03,11,06,25,4.30
2012,03,11,06,26,4.30
2012,03,11,06,27,4.20
2012,03,11,06,28,4.10
2012,03,11,06,29,4.00
2012,03,11,06,30,3.90
2012,03,11,06,31,3.80
2012,03,11,06,32,3.80
2012,03,11,06,33,3.60
2012,03,11,06,34,3.60
2012,03,11,06,35,3.50
2012,03,11,06,36,3.40
2012,03,11,06,37,3.30
2012,03,11,06,38,3.20
2012,03,11,06,39,3.10
2012,03,11,06,40,3.00
2012,03,11,06,41,2.90
2012,03,11,06,42,2.80
2012,03,11,06,43,2.70
2012,03,11,06,44,2.70
2012,03,11,06,45,2.60
2012,03,11,06,46,2.50
2012,03,11,06,47,2.50
2012,03,11,06,48,2.40
2012,03,11,06,49,2.40
2012,03,11,06,50,2.40
2012,03,11,06,51,2.30
2012,03,11,06,52,2.30
2012,03,11,06,53,2.30
2012,03,11,06,54,2.20
2012,03,11,06,55,2.20
2012,03,11,06,56,2.20
2012,03,11,06,57,2.10
2012,03,11,06,58,2.10
2012,03,11,06,59,2.10
2012,03,11,07,00,2.10
2012,03,11,07,01,2.00
2012,03,11,07,02,1.90
2012,03,11,07,03,1.90
2012,03,11,07,04,1.90
2012,03,11,07,05,1.80
2012,03,11,07,06,1.80
2012,03,11,07,07,1.80
2012,03,11,07,08,1.80
2012,03,11,07,09,1.80
2012,03,11,07,10,1.80
2012,03,11,07,11,1.80
2012,03,11,07,12,1.80
2012,03,11,07,13,1.90
2012,03,11,07,14,1.90
2012,03,11,07,15,2.00
2012,03,11,07,16,2.00
2012,03,11,07,17,2.10
2012,03,11,07,18,2.20
2012,03,11,07,19,2.20
2012,03,11,07,20,2.30
2012,03,11,07,21,2.30
2012,03,11,07,22,2.30
2012,03,11,07,23,2.40
2012,03,11,07,24,2.40
2012,03,11,07,25,2.40
2012,03,11,07,26,2.40
2012,03,11,07,27,2.50
2012,03,11,07,28,2.50
2012,03,11,07,29,2.50
2012,03,11,07,30,2.60
2012,03,11,07,31,2.60
2012,03,11,07,32,2.60
2012,03,11,07,33,2.60
2012,03,11,07,34,2.60
2012,03,11,07,35,2.60
2012,03,11,07,36,2.60
2012,03,11,07,37,2.60
2012,03,11,07,38,2.60
2012,03,11,07,39,2.60
2012,03,11,07,40,2.60
2012,03,11,07,41,2.50
2012,03,11,07,42,2.50
2012,03,11,07,43,2.50
2012,03,11,07,44,2.50
2012,03,11,07,45,2.50
2012,03,11,07,46,2.40
2012,03,11,07,47,2.40
2012,03,11,07,48,2.40
2012,03,11,07,49,2.30
2012,03,11,07,50,2.30
2012,03,11,07,51,2.30
2012,03,11,07,52,2.30
2012,03,11,07,53,2.30
2012,03,11,07,54,2.20
2012,03,11,07,55,2.20
2012,03,11,07,56,2.20
2012,03,11,07,57,2.20
2012,03,11,07,58,2.10
2012,03,11,07,59,2.10
2012,03,11,08,00,2.00
2012,03,11,08,01,2.00
2012,03,11,08,02,1.90
2012,03,11,08,03,1.90
2012,03,11,08,04,1.90
2012,03,11,08,05,1.90
2012,03,11,08,06,1.80
2012,03,11,08,07,1.80
2012,03,11,08,08,1.80
2012,03,11,08,09,1.80
2012,03,11,08,10,1.80
2012,03,11,08,11,1.80
2012,03,11,08,12,1.80
2012,03,11,08,13,1.80
2012,03,11,08,14,1.80
2012,03,11,08,15,1.70
2012,03,11,08,16,1.70
2012,03,11,08,17,1.70
2012,03,11,08,18,1.70
2012,03,11,08,19,1.70
2012,03,11,08,20,1.70
2012,03,11,08,21,1.70
2012,03,11,08,22,1.70
2012,03,11,08,23,1.60
2012,03,11,08,24,1.50
2012,03,11,08,25,1.50
2012,03,11,08,26,1.40
2012,03,11,08,27,1.30
2012,03,11,08,28,1.30
2012,03,11,08,29,1.30
2012,03,11,08,30,1.30
2012,03,11,08,31,1.30
2012,03,11,08,32,1.30
2012,03,11,08,33,1.30
2012,03,11,08,34,1.30
2012,03,11,08,35,1.30
2012,03,11,08,36,1.30
2012,03,11,08,37,1.30
2012,03,11,08,38,1.30
2012,03,11,08,39,1.30
2012,03,11,08,40,1.30
2012,03,11,08,41,1.30
2012,03,11,08,42,1.30
2012,03,11,08,43,1.30
2012,03,11,08,44,1.30
2012,03,11,08,45,1.30
2012,03,11,08,46,1.30
2012,03,11,08,47,1.30
2012,03,11,08,48,1.30
2012,03,11,08,49,1.40
2012,03,11,08,50,1.40
2012,03,11,08,51,1.40
2012,03,11,08,52,1.40
2012,03,11,08,53,1.40
2012,03,11,08,54,1.40
2012,03,11,08,55,1.40
2012,03,11,08,56,1.50
2012,03,11,08,57,1.50
2012,03,11,08,58,1.50
2012,03,11,08,59,1.60
2012,03,11,09,00,1.60
2012,03,11,09,01,1.70
2012,03,11,09,02,1.70
2012,03,11,09,03,1.80
2012,03,11,09,04,1.80
2012,03,11,09,05,1.90
2012,03,11,09,06,1.90
2012,03,11,09,07,1.90
2012,03,11,09,08,2.00
2012,03,11,09,09,2.00
2012,03,11,09,10,2.10
2012,03,11,09,11,2.10
2012,03,11,09,12,2.10
2012,03,11,09,13,2.20
2012,03,11,09,14,2.20
2012,03,11,09,15,2.20
2012,03,11,09,16,2.30
2012,03,11,09,17,2.30
2012,03,11,09,18,2.40
2012,03,11,09,19,2.40
2012,03,11,09,20,2.50
2012,03,11,09,21,2.50
2012,03,11,09,22,2.60
2012,03,11,09,23,2.70
2012,03,11,09,24,2.80
2012,03,11,09,25,2.90
2012,03,11,09,26,3.00
2012,03,11,09,27,3.00
2012,03,11,09,28,3.10
2012,03,11,09,29,3.20
2012,03,11,09,30,3.20
2012,03,11,09,31,3.30
2012,03,11,09,32,3.30
2012,03,11,09,33,3.30
2012,03,11,09,34,3.40
2012,03,11,09,35,3.40
2012,03,11,09,36,3.40
2012,03,11,09,37,3.40
2012,03,11,09,38,3.40
2012,03,11,09,39,3.40
2012,03,11,09,40,3.30
2012,03,11,09,41,3.30
2012,03,11,09,42,3.30
2012,03,11,09,43,3.30
2012,03,11,09,44,3.30
2012,03,11,09,45,3.30
2012,03,11,09,46,3.30
2012,03,11,09,47,3.40
2012,03,11,09,48,3.50
2012,03,11,09,49,3.50
2012,03,11,09,50,3.60
2012,03,11,09,51,3.70
2012,03,11,09,52,3.80
2012,03,11,09,53,3.90
2012,03,11,09,54,4.00
2012,03,11,09,55,4.10
2012,03,11,09,56,4.20
2012,03,11,09,57,4.30
2012,03,11,09,58,4.40
2012,03,11,09,59,4.60
2012,03,11,10,00,4.60
2012,03,11,10,01,4.70
2012,03,11,10,02,4.80
2012,03,11,10,03,4.90
2012,03,11,10,04,5.00
2012,03,11,10,05,5.00
2012,03,11,10,06,5.10
2012,03,11,10,07,5.20
2012,03,11,10,08,5.30
2012,03,11,10,09,5.40
2012,03,11,10,10,5.50
2012,03,11,10,11,5.60
2012,03,11,10,12,5.60
2012,03,11,10,13,5.70
2012,03,11,10,14,5.70
2012,03,11,10,15,5.70
2012,03,11,10,16,5.80
2012,03,11,10,17,5.80
2012,03,11,10,18,5.80
2012,03,11,10,19,5.80
2012,03,11,10,20,5.80
2012,03,11,10,21,5.90
2012,03,11,10,22,6.00
2012,03,11,10,23,6.00
2012,03,11,10,24,6.00
2012,03,11,10,25,6.10
2012,03,11,10,26,6.10
2012,03,11,10,27,6.10
2012,03,11,10,28,6.10
2012,03,11,10,29,6.10
2012,03,11,10,30,6.10
2012,03,11,10,31,6.20
2012,03,11,10,32,6.20
2012,03,11,10,33,6.30
2012,03,11,10,34,6.30
2012,03,11,10,35,6.40
2012,03,11,10,36,6.60
2012,03,11,10,37,6.80
2012,03,11,10,38,6.90
2012,03,11,10,39,7.00
2012,03,11,10,40,7.20
2012,03,11,10,41,7.20
2012,03,11,10,42,7.30
2012,03,11,10,43,7.30
2012,03,11,10,44,7.40
2012,03,11,10,45,7.40
2012,03,11,10,46,7.30
2012,03,11,10,47,7.20
2012,03,11,10,48,7.10
2012,03,11,10,49,7.00
2012,03,11,10,50,6.90
2012,03,11,10,51,6.90
2012,03,11,10,52,6.80
2012,03,11,10,53,6.70
2012,03,11,10,54,6.60
2012,03,11,10,55,6.50
2012,03,11,10,56,6.40
2012,03,11,10,57,6.40
2012,03,11,10,58,6.40
2012,03,11,10,59,6.40
2012,03,11,11,00,6.50
2012,03,11,11,01,6.50
2012,03,11,11,02,6.50
2012,03,11,11,03,6.50
2012,03,11,11,04,6.40
2012,03,11,11,05,6.30
2012,03,11,11,06,6.20
2012,03,11,11,07,6.00
2012,03,11,11,08,5.90
2012,03,11,11,09,5.90
2012,03,11,11,10,5.90
2012,03,11,11,11,5.90
2012,03,11,11,12,6.00
2012,03,11,11,13,6.10
2012,03,11,11,14,6.20
2012,03,11,11,15,6.30
2012,03,11,11,16,6.30
2012,03,11,11,17,6.30
2012,03,11,11,18,6.30
2012,03,11,11,19,6.20
2012,03,11,11,20,6.20
2012,03,11,11,21,6.20
2012,03,11,11,22,6.20
2012,03,11,11,23,6.20
2012,03,11,11,24,6.10
2012,03,11,11,25,6.10
2012,03,11,11,26,6.10
2012,03,11,11,27,6.10
2012,03,11,11,28,6.10
2012,03,11,11,29,6.10
2012,03,11,11,30,6.10
2012,03,11,11,31,6.10
2012,03,11,11,32,6.20
2012,03,11,11,33,6.20
2012,03,11,11,34,6.30
2012,03,11,11,35,6.30
2012,03,11,11,36,6.40
2012,03,11,11,37,6.50
2012,03,11,11,38,6.50
2012,03,11,11,39,6.50
2012,03,11,11,40,6.50
2012,03,11,11,41,6.50
2012,03,11,11,42,6.50
2012,03,11,11,43,6.50
2012,03,11,11,44,6.50
2012,03,11,11,45,6.50
2012,03,11,11,46,6.50
2012,03,11,11,47,6.50
2012,03,11,11,48,6.40
2012,03,11,11,49,6.40
2012,03,11,11,50,6.40
2012,03,11,11,51,6.40
2012,03,11,11,52,6.40
2012,03,11,11,53,6.50
2012,03,11,11,54,6.50
2012,03,11,11,55,6.60
2012,03,11,11,56,6.60
2012,03,11,11,57,6.70
2012,03,11,11,58,6.70
2012,03,11,11,59,6.70
2012,03,11,12,00,6.70
2012,03,11,12,01,6.80
2012,03,11,12,02,6.80
2012,03,11,12,03,6.90
2012,03,11,12,04,6.90
2012,03,11,12,05,6.90
2012,03,11,12,06,6.90
2012,03,11,12,07,6.90
2012,03,11,12,08,6.80
2012,03,11,12,09,6.80
2012,03,11,12,10,6.90
2012,03,11,12,11,6.90
2012,03,11,12,12,6.80
2012,03,11,12,13,6.90
2012,03,11,12,14,6.90
2012,03,11,12,15,6.90
2012,03,11,12,16,6.90
2012,03,11,12,17,7.00
2012,03,11,12,18,7.10
2012,03,11,12,19,7.20
2012,03,11,12,20,7.30
2012,03,11,12,21,7.40
2012,03,11,12,22,7.40
2012,03,11,12,23,7.40
2012,03,11,12,24,7.50
2012,03,11,12,25,7.50
2012,03,11,12,26,7.60
2012,03,11,12,27,7.70
2012,03,11,12,28,7.70
2012,03,11,12,29,7.70
2012,03,11,12,30,7.70
2012,03,11,12,31,7.70
2012,03,11,12,32,7.80
2012,03,11,12,33,7.80
2012,03,11,12,34,7.80
2012,03,11,12,35,7.70
2012,03,11,12,36,7.70
2012,03,11,12,37,7.60
2012,03,11,12,38,7.50
2012,03,11,12,39,7.40
2012,03,11,12,40,7.30
2012,03,11,12,41,7.30
2012,03,11,12,42,7.30
2012,03,11,12,43,7.30
2012,03,11,12,44,7.30
2012,03,11,12,45,7.30
2012,03,11,12,46,7.30
2012,03,11,12,47,7.40
2012,03,11,12,48,7.60
2012,03,11,12,49,7.70
2012,03,11,12,50,7.80
2012,03,11,12,51,7.80
2012,03,11,12,52,7.80
2012,03,11,12,53,7.90
2012,03,11,12,54,7.90
2012,03,11,12,55,7.90
2012,03,11,12,56,7.90
2012,03,11,12,57,8.00
2012,03,11,12,58,8.00
2012,03,11,12,59,8.00
2012,03,11,13,00,8.10
2012,03,11,13,01,8.20
2012,03,11,13,02,8.30
2012,03,11,13,03,8.40
2012,03,11,13,04,8.50
2012,03,11,13,05,8.60
2012,03,11,13,06,8.70
2012,03,11,13,07,8.70
2012,03,11,13,08,8.70
2012,03,11,13,09,8.70
2012,03,11,13,10,8.60
2012,03,11,13,11,8.40
2012,03,11,13,12,8.10
2012,03,11,13,13,7.80
2012,03,11,13,14,7.60
2012,03,11,13,15,7.20
2012,03,11,13,16,6.80
2012,03,11,13,17,6.30
2012,03,11,13,18,5.80
2012,03,11,13,19,5.40
2012,03,11,13,20,5.10
2012,03,11,13,21,4.90
2012,03,11,13,22,4.60
2012,03,11,13,23,4.30
2012,03,11,13,24,4.10
2012,03,11,13,25,3.90
2012,03,11,13,26,3.70
2012,03,11,13,27,3.60
2012,03,11,13,28,3.50
2012,03,11,13,29,3.40
2012,03,11,13,30,3.30
2012,03,11,13,31,3.30
2012,03,11,13,32,3.30
2012,03,11,13,33,3.30
2012,03,11,13,34,3.30
2012,03,11,13,35,3.40
2012,03,11,13,36,3.40
2012,03,11,13,37,3.50
2012,03,11,13,38,3.50
2012,03,11,13,39,3.60
2012,03,11,13,40,3.80
2012,03,11,13,41,3.90
2012,03,11,13,42,4.00
2012,03,11,13,43,4.20
2012,03,11,13,44,4.40
2012,03,11,13,45,4.60
2012,03,11,13,46,4.70
2012,03,11,13,47,4.90
2012,03,11,13,48,5.00
2012,03,11,13,49,5.10
2012,03,11,13,50,5.10
2012,03,11,13,51,5.20
2012,03,11,13,52,5.20
2012,03,11,13,53,5.30
2012,03,11,13,54,5.30
2012,03,11,13,55,5.40
2012,03,11,13,56,5.40
2012,03,11,13,57,5.50
2012,03,11,13,58,5.60
2012,03,11,13,59,5.70
2012,03,11,14,00,5.70
2012,03,11,14,01,5.80
2012,03,11,14,02,5.80
2012,03,11,14,03,5.80
2012,03,11,14,04,5.90
2012,03,11,14,05,5.90
2012,03,11,14,06,5.90
2012,03,11,14,07,5.90
2012,03,11,14,08,6.00
2012,03,11,14,09,6.00
2012,03,11,14,10,6.10
2012,03,11,14,11,6.10
2012,03,11,14,12,6.20
2012,03,11,14,13,6.30
2012,03,11,14,14,6.30
2012,03,11,14,15,6.40
2012,03,11,14,16,6.40
2012,03,11,14,17,6.40
2012,03,11,14,18,6.30
2012,03,11,14,19,6.30
2012,03,11,14,20,6.20
2012,03,11,14,21,6.10
2012,03,11,14,22,6.00
2012,03,11,14,23,5.90
2012,03,11,14,24,5.90
2012,03,11,14,25,5.90
2012,03,11,14,26,5.90
2012,03,11,14,27,5.80
2012,03,11,14,28,5.80
2012,03,11,14,29,5.70
2012,03,11,14,30,5.70
2012,03,11,14,31,5.60
2012,03,11,14,32,5.60
2012,03,11,14,33,5.60
2012,03,11,14,34,5.50
2012,03,11,14,35,5.50
2012,03,11,14,36,5.40
2012,03,11,14,37,5.40
2012,03,11,14,38,5.30
2012,03,11,14,39,5.10
2012,03,11,14,40,5.00
2012,03,11,14,41,4.80
2012,03,11,14,42,4.60
2012,03,11,14,43,4.40
2012,03,11,14,44,4.30
2012,03,11,14,45,4.10
2012,03,11,14,46,4.00
2012,03,11,14,47,3.90
2012,03,11,14,48,3.80
2012,03,11,14,49,3.80
2012,03,11,14,50,3.80
2012,03,11,14,51,3.70
2012,03,11,14,52,3.70
2012,03,11,14,53,3.70
2012,03,11,14,54,3.70
2012,03,11,14,55,3.80
2012,03,11,14,56,3.80
2012,03,11,14,57,3.80
2012,03,11,14,58,3.90
2012,03,11,14,59,3.90
2012,03,11,15,00,4.00
2012,03,11,15,01,4.10
2012,03,11,15,02,4.20
2012,03,11,15,03,4.20
2012,03,11,15,04,4.30
2012,03,11,15,05,4.30
2012,03,11,15,06,4.30
2012,03,11,15,07,4.30
2012,03,11,15,08,4.20
2012,03,11,15,09,4.30
2012,03,11,15,10,4.30
2012,03,11,15,11,4.30
2012,03,11,15,12,4.40
2012,03,11,15,13,4.50
2012,03,11,15,14,4.60
2012,03,11,15,15,4.70
2012,03,11,15,16,4.80
2012,03,11,15,17,4.90
2012,03,11,15,18,5.00
2012,03,11,15,19,5.10
2012,03,11,15,20,5.10
2012,03,11,15,21,5.20
2012,03,11,15,22,5.20
2012,03,11,15,23,5.20
2012,03,11,15,24,5.20
2012,03,11,15,25,5.20
2012,03,11,15,26,5.20
2012,03,11,15,27,5.20
2012,03,11,15,28,5.10
2012,03,11,15,29,5.10
2012,03,11,15,30,5.10
2012,03,11,15,31,5.00
2012,03,11,15,32,5.00
2012,03,11,15,33,5.00
2012,03,11,15,34,4.90
2012,03,11,15,35,4.90
2012,03,11,15,36,4.90
2012,03,11,15,37,4.80
2012,03,11,15,38,4.80
2012,03,11,15,39,4.70
2012,03,11,15,40,4.70
2012,03,11,15,41,4.60
2012,03,11,15,42,4.50
2012,03,11,15,43,4.40
2012,03,11,15,44,4.30
2012,03,11,15,45,4.30
2012,03,11,15,46,4.20
2012,03,11,15,47,4.20
2012,03,11,15,48,4.10
2012,03,11,15,49,4.10
2012,03,11,15,50,4.10
2012,03,11,15,51,4.10
2012,03,11,15,52,4.10
2012,03,11,15,53,4.00
2012,03,11,15,54,4.00
2012,03,11,15,55,4.00
2012,03,11,15,56,4.00
2012,03,11,15,57,4.00
2012,03,11,15,58,3.90
2012,03,11,15,59,3.90
2012,03,11,16,00,3.80
2012,03,11,16,01,3.80
2012,03,11,16,02,3.80
2012,03,11,16,03,3.80
2012,03,11,16,04,3.80
2012,03,11,16,05,3.80
2012,03,11,16,06,3.80
2012,03,11,16,07,3.80
2012,03,11,16,08,3.80
2012,03,11,16,09,3.80
2012,03,11,16,10,3.80
2012,03,11,16,11,3.80
2012,03,11,16,12,3.80
2012,03,11,16,13,3.90
2012,03,11,16,14,3.90
2012,03,11,16,15,3.90
2012,03,11,16,16,4.00
2012,03,11,16,17,4.10
2012,03,11,16,18,4.10
2012,03,11,16,19,4.10
2012,03,11,16,20,4.10
2012,03,11,16,21,4.10
2012,03,11,16,22,4.20
2012,03,11,16,23,4.20
2012,03,11,16,24,4.20
2012,03,11,16,25,4.20
2012,03,11,16,26,4.20
2012,03,11,16,27,4.20
2012,03,11,16,28,4.20
2012,03,11,16,29,4.20
2012,03,11,16,30,4.20
2012,03,11,16,31,4.20
2012,03,11,16,32,4.20
2012,03,11,16,33,4.20
2012,03,11,16,34,4.20
2012,03,11,16,35,4.30
2012,03,11,16,36,4.30
2012,03,11,16,37,4.30
2012,03,11,16,38,4.40
2012,03,11,16,39,4.40
2012,03,11,16,40,4.40
2012,03,11,16,41,4.40
2012,03,11,16,42,4.40
2012,03,11,16,43,4.40
2012,03,11,16,44,4.40
2012,03,11,16,45,4.40
2012,03,11,16,46,4.40
2012,03,11,16,47,4.40
2012,03,11,16,48,4.40
2012,03,11,16,49,4.40
2012,03,11,16,50,4.50
2012,03,11,16,51,4.50
2012,03,11,16,52,4.50
2012,03,11,16,53,4.50
2012,03,11,16,54,4.40
2012,03,11,16,55,4.40
2012,03,11,16,56,4.40
2012,03,11,16,57,4.40
2012,03,11,16,58,4.30
2012,03,11,16,59,4.30
2012,03,11,17,00,4.30
2012,03,11,17,01,4.30
2012,03,11,17,02,4.20
2012,03,11,17,03,4.20
2012,03,11,17,04,4.20
2012,03,11,17,05,4.20
2012,03,11,17,06,4.20
2012,03,11,17,07,4.20
2012,03,11,17,08,4.20
2012,03,11,17,09,4.20
2012,03,11,17,10,4.20
2012,03,11,17,11,4.30
2012,03,11,17,12,4.30
2012,03,11,17,13,4.30
2012,03,11,17,14,4.30
2012,03,11,17,15,4.40
2012,03,11,17,16,4.40
2012,03,11,17,17,4.50
2012,03,11,17,18,4.50
2012,03,11,17,19,4.60
2012,03,11,17,20,4.70
2012,03,11,17,21,4.80
2012,03,11,17,22,4.90
2012,03,11,17,23,5.00
2012,03,11,17,24,5.10
2012,03,11,17,25,5.20
2012,03,11,17,26,5.20
2012,03,11,17,27,5.30
2012,03,11,17,28,5.30
2012,03,11,17,29,5.40
2012,03,11,17,30,5.40
2012,03,11,17,31,5.40
2012,03,11,17,32,5.40
2012,03,11,17,33,5.40
2012,03,11,17,34,5.40
2012,03,11,17,35,5.40
2012,03,11,17,36,5.40
2012,03,11,17,37,5.40
2012,03,11,17,38,5.30
2012,03,11,17,39,5.30
2012,03,11,17,40,5.20
2012,03,11,17,41,5.20
2012,03,11,17,42,5.20
2012,03,11,17,43,5.20
2012,03,11,17,44,5.20
2012,03,11,17,45,5.10
2012,03,11,17,46,5.10
2012,03,11,17,47,5.10
2012,03,11,17,48,5.10
2012,03,11,17,49,5.00
2012,03,11,17,50,5.00
2012,03,11,17,51,5.00
2012,03,11,17,52,4.90
2012,03,11,17,53,4.90
2012,03,11,17,54,4.90
2012,03,11,17,55,4.90
2012,03,11,17,56,4.90
2012,03,11,17,57,4.90
2012,03,11,17,58,4.90
2012,03,11,17,59,4.90
2012,03,11,18,00,4.80
2012,03,11,18,01,4.80
2012,03,11,18,02,4.80
2012,03,11,18,03,4.80
2012,03,11,18,04,4.80
2012,03,11,18,05,4.80
2012,03,11,18,06,4.90
2012,03,11,18,07,4.90
2012,03,11,18,08,4.90
2012,03,11,18,09,4.90
2012,03,11,18,10,4.90
2012,03,11,18,11,4.90
2012,03,11,18,12,4.90
2012,03,11,18,13,4.90
2012,03,11,18,14,4.90
2012,03,11,18,15,4.90
2012,03,11,18,16,4.90
2012,03,11,18,17,4.90
2012,03,11,18,18,4.80
2012,03,11,18,19,4.80
2012,03,11,18,20,4.80
2012,03,11,18,21,4.80
2012,03,11,18,22,4.80
2012,03,11,18,23,4.80
2012,03,11,18,24,4.80
2012,03,11,18,25,4.70
2012,03,11,18,26,4.70
2012,03,11,18,27,4.70
2012,03,11,18,28,4.60
2012,03,11,18,29,4.60
2012,03,11,18,30,4.50
2012,03,11,18,31,4.40
2012,03,11,18,32,4.40
2012,03,11,18,33,4.30
2012,03,11,18,34,4.30
2012,03,11,18,35,4.30
2012,03,11,18,36,4.20
2012,03,11,18,37,4.20
2012,03,11,18,38,4.20
2012,03,11,18,39,4.20
2012,03,11,18,40,4.20
2012,03,11,18,41,4.20
2012,03,11,18,42,4.20
2012,03,11,18,43,4.10
2012,03,11,18,44,4.10
2012,03,11,18,45,4.00
2012,03,11,18,46,4.00
2012,03,11,18,47,4.00
2012,03,11,18,48,3.90
2012,03,11,18,49,3.90
2012,03,11,18,50,3.90
2012,03,11,18,51,3.80
2012,03,11,18,52,3.80
2012,03,11,18,53,3.80
2012,03,11,18,54,3.70
2012,03,11,18,55,3.70
2012,03,11,18,56,3.70
2012,03,11,18,57,3.60
2012,03,11,18,58,3.60
2012,03,11,18,59,3.50
2012,03,11,19,00,3.50
2012,03,11,19,01,3.50
2012,03,11,19,02,3.40
2012,03,11,19,03,3.30
2012,03,11,19,04,3.30
2012,03,11,19,05,3.30
2012,03,11,19,06,3.30
2012,03,11,19,07,3.30
2012,03,11,19,08,3.30